User: anonymous   Login
Location: Unspecified
(0.0000°N, 0.0000°E)
Time: 09:38:45
(UTC+00:00)
Language:

IGS RADAR-5 - Orbit

View from above orbital plane
View from above orbital plane
View from above satellite
View from above satellite

Ground track
Ground track

The orbit data is extracted from the following two-line orbital elements,

1 42072U 17015A   18250.86211954 0.00000000  00000-0  00000-0 0    04
2 42072  97.3708 320.7363 0003000 340.5304  19.4694 15.25981300    04
Epoch (UTC): 07 September 2018 20:41:27
Eccentricity: 0.0003000
inclination: 97.3708°
perigee height: 486 km
apogee height: 490 km
right ascension of ascending node: 320.7363°
argument of perigee: 340.5304°
revolutions per day: 15.25981300
mean anomaly at epoch: 19.4694°
orbit number at epoch: 0

The dashed part of the orbit path shows where the satellite is in the earth's shadow,  

DLR